EN

Hourly Weather Bolshie Memi

Today, 22 October, Thursday

Time Temperature Precipitation Wind Pressure Humidity
00:00 -4°C° 0 mm 5 mps 751 mmHg 82%
01:00 -5°C° 0 mm 5 mps 751 mmHg 82%
02:00 -5°C° 0 mm 5 mps 751 mmHg 83%
03:00 -5°C° 0 mm 5 mps 752 mmHg 87%
04:00 -5°C° 0 mm 5 mps 752 mmHg 86%
05:00 -4°C° 0 mm 4 mps 752 mmHg 85%
06:00 -4°C° 0 mm 4 mps 752 mmHg 84%
07:00 -4°C° 0 mm 5 mps 752 mmHg 80%
08:00 -2°C° 0 mm 5 mps 752 mmHg 75%
09:00 -3°C° 0 mm 6 mps 753 mmHg 70%
10:00 -2°C° 0 mm 6 mps 753 mmHg 67%
11:00 0°C° 0 mm 5 mps 753 mmHg 64%
12:00 0°C° 0 mm 5 mps 753 mmHg 60%
13:00 0°C° 0 mm 5 mps 753 mmHg 61%
14:00 0°C° 0 mm 5 mps 753 mmHg 61%
15:00 0°C° 0 mm 4 mps 753 mmHg 61%
16:00 0°C° 0 mm 3 mps 753 mmHg 66%
17:00 -1°C° 0 mm 2 mps 753 mmHg 71%
18:00 -1°C° 0 mm 2 mps 753 mmHg 76%
19:00 0°C° 0 mm 1 mps 753 mmHg 77%
20:00 0°C° 0 mm 1 mps 753 mmHg 78%
21:00 0°C° 0 mm 1 mps 753 mmHg 79%
22:00 0°C° 0 mm 1 mps 753 mmHg 80%
23:00 0°C° 0 mm 1 mps 752 mmHg 80%

Tomorrow, 23 October, Friday

Time Temperature Precipitation Wind Pressure Humidity
00:00 0°C° 0 mm 1 mps 752 mmHg 80%
01:00 -2°C° 0 mm 2 mps 752 mmHg 80%
02:00 -2°C° 0 mm 2 mps 752 mmHg 80%
03:00 -2°C° 0 mm 2 mps 752 mmHg 79%
04:00 -1°C° 0 mm 3 mps 751 mmHg 80%
05:00 -1°C° 0 mm 3 mps 750 mmHg 80%
06:00 -1°C° 0 mm 4 mps 750 mmHg 81%
07:00 -1°C° 0 mm 5 mps 749 mmHg 84%
08:00 -2°C° 0 mm 6 mps 749 mmHg 88%
09:00 -1°C° 0 mm 6 mps 748 mmHg 92%
10:00 -1°C° 0.3 mm 6 mps 748 mmHg 93%
11:00 -1°C° 0.3 mm 6 mps 747 mmHg 94%
12:00 -1°C° 0.3 mm 6 mps 746 mmHg 95%
13:00 +1°C° 0.4 mm 6 mps 746 mmHg 95%
14:00 +1°C° 0.4 mm 6 mps 745 mmHg 95%
15:00 +1°C° 0.4 mm 6 mps 745 mmHg 94%
16:00 +2°C° 0.6 mm 6 mps 744 mmHg 95%
17:00 +2°C° 0.6 mm 6 mps 744 mmHg 96%
18:00 +2°C° 0.6 mm 5 mps 743 mmHg 96%
19:00 +3°C° 0.4 mm 5 mps 743 mmHg 97%
20:00 +4°C° 0.4 mm 4 mps 742 mmHg 97%
21:00 +4°C° 0.4 mm 4 mps 742 mmHg 97%
22:00 +5°C° 0.1 mm 4 mps 742 mmHg 96%
23:00 +5°C° 0.1 mm 4 mps 741 mmHg 96%

Day after tomorrow, 24 October, Saturday

Time Temperature Precipitation Wind Pressure Humidity
00:00 +6°C° 0.1 mm 4 mps 741 mmHg 95%
01:00 +6°C° 0.9 mm 4 mps 741 mmHg 95%
02:00 +6°C° 0.9 mm 5 mps 740 mmHg 96%
03:00 +6°C° 0.9 mm 5 mps 740 mmHg 96%
04:00 +6°C° 0.7 mm 5 mps 740 mmHg 96%
05:00 +6°C° 0.7 mm 4 mps 739 mmHg 96%
06:00 +7°C° 0.7 mm 4 mps 738 mmHg 97%
07:00 +7°C° 0.4 mm 4 mps 739 mmHg 96%
08:00 +7°C° 0.4 mm 4 mps 739 mmHg 96%
09:00 +7°C° 0.4 mm 4 mps 739 mmHg 95%
10:00 +8°C° 0.3 mm 5 mps 739 mmHg 91%
11:00 +9°C° 0.3 mm 6 mps 740 mmHg 86%
12:00 +10°C° 0.3 mm 6 mps 740 mmHg 82%
13:00 +9°C° 0.1 mm 6 mps 741 mmHg 82%
14:00 +9°C° 0.1 mm 6 mps 741 mmHg 83%
15:00 +9°C° 0.1 mm 6 mps 742 mmHg 84%
16:00 +8°C° 0 mm 5 mps 743 mmHg 85%
17:00 +8°C° 0 mm 5 mps 743 mmHg 85%
18:00 +7°C° 0 mm 4 mps 743 mmHg 86%
19:00 +7°C° 0.1 mm 4 mps 744 mmHg 85%
20:00 +7°C° 0.1 mm 4 mps 744 mmHg 85%
21:00 +7°C° 0.1 mm 4 mps 745 mmHg 84%
22:00 +6°C° 0 mm 4 mps 745 mmHg 84%
23:00 +7°C° 0 mm 3 mps 745 mmHg 85%

, 25 October, Sunday

Time Temperature Precipitation Wind Pressure Humidity
00:00 +5°C° 0 mm 3 mps 745 mmHg 86%
01:00 +5°C° 0 mm 3 mps 745 mmHg 88%
02:00 +4°C° 0 mm 3 mps 746 mmHg 89%
03:00 +3°C° 0 mm 3 mps 746 mmHg 91%
04:00 +4°C° 0 mm 2 mps 746 mmHg 90%
05:00 +3°C° 0 mm 2 mps 746 mmHg 89%
06:00 +4°C° 0 mm 1 mps 746 mmHg 87%
07:00 +5°C° 0 mm 1 mps 746 mmHg 84%
08:00 +6°C° 0 mm 1 mps 746 mmHg 80%
09:00 +6°C° 0 mm 1 mps 746 mmHg 76%
10:00 +6°C° 0.1 mm 2 mps 746 mmHg 77%
11:00 +5°C° 0.1 mm 3 mps 746 mmHg 77%
12:00 +5°C° 0.1 mm 3 mps 746 mmHg 78%
13:00 +5°C° 0.4 mm 3 mps 745 mmHg 82%
14:00 +6°C° 0.4 mm 2 mps 745 mmHg 87%
15:00 +6°C° 0.4 mm 2 mps 745 mmHg 92%
16:00 +6°C° 0.4 mm 2 mps 745 mmHg 92%
17:00 +6°C° 0.4 mm 2 mps 745 mmHg 93%
18:00 +6°C° 0.4 mm 2 mps 745 mmHg 93%
19:00 +5°C° 0 mm 2 mps 745 mmHg 92%
20:00 +4°C° 0 mm 3 mps 745 mmHg 91%
21:00 +4°C° 0 mm 3 mps 746 mmHg 91%
22:00 +3°C° 0 mm 3 mps 746 mmHg 92%
23:00 +1°C° 0 mm 4 mps 746 mmHg 93%

25 October, Sunday

Time Temperature Precipitation Wind Pressure Humidity
00:00 +5°C° 0 mm 3 mps 745 mmHg 86%
01:00 +5°C° 0 mm 3 mps 745 mmHg 88%
02:00 +4°C° 0 mm 3 mps 746 mmHg 89%
03:00 +3°C° 0 mm 3 mps 746 mmHg 91%
04:00 +4°C° 0 mm 2 mps 746 mmHg 90%
05:00 +3°C° 0 mm 2 mps 746 mmHg 89%
06:00 +4°C° 0 mm 1 mps 746 mmHg 87%
07:00 +5°C° 0 mm 1 mps 746 mmHg 84%
08:00 +6°C° 0 mm 1 mps 746 mmHg 80%
09:00 +6°C° 0 mm 1 mps 746 mmHg 76%
10:00 +6°C° 0.1 mm 2 mps 746 mmHg 77%
11:00 +5°C° 0.1 mm 3 mps 746 mmHg 77%
12:00 +5°C° 0.1 mm 3 mps 746 mmHg 78%
13:00 +5°C° 0.4 mm 3 mps 745 mmHg 82%
14:00 +6°C° 0.4 mm 2 mps 745 mmHg 87%
15:00 +6°C° 0.4 mm 2 mps 745 mmHg 92%
16:00 +6°C° 0.4 mm 2 mps 745 mmHg 92%
17:00 +6°C° 0.4 mm 2 mps 745 mmHg 93%
18:00 +6°C° 0.4 mm 2 mps 745 mmHg 93%
19:00 +5°C° 0 mm 2 mps 745 mmHg 92%
20:00 +4°C° 0 mm 3 mps 745 mmHg 91%
21:00 +4°C° 0 mm 3 mps 746 mmHg 91%
22:00 +3°C° 0 mm 3 mps 746 mmHg 92%
23:00 +1°C° 0 mm 4 mps 746 mmHg 93%

26 October, Monday

Time Temperature Precipitation Wind Pressure Humidity
00:00 +1°C° 0 mm 4 mps 746 mmHg 94%
01:00 0°C° 0 mm 4 mps 747 mmHg 94%
02:00 0°C° 0 mm 5 mps 747 mmHg 94%
03:00 -1°C° 0 mm 5 mps 747 mmHg 93%
04:00 -1°C° 0 mm 5 mps 748 mmHg 91%
05:00 -1°C° 0 mm 5 mps 748 mmHg 88%
06:00 -2°C° 0 mm 6 mps 749 mmHg 86%
07:00 -2°C° 0 mm 6 mps 749 mmHg 82%
08:00 -2°C° 0 mm 6 mps 749 mmHg 77%
09:00 -2°C° 0 mm 6 mps 750 mmHg 73%
10:00 -1°C° 0 mm 6 mps 750 mmHg 72%
11:00 -1°C° 0 mm 6 mps 751 mmHg 72%
12:00 +1°C° 0 mm 6 mps 751 mmHg 71%
13:00 0°C° 0 mm 7 mps 752 mmHg 72%
14:00 0°C° 0 mm 7 mps 752 mmHg 73%
15:00 0°C° 0 mm 8 mps 753 mmHg 73%
16:00 -1°C° 0 mm 7 mps 754 mmHg 75%
17:00 -2°C° 0 mm 6 mps 754 mmHg 76%
18:00 -2°C° 0 mm 5 mps 755 mmHg 78%
19:00 -2°C° 0 mm 4 mps 756 mmHg 79%
20:00 -3°C° 0 mm 4 mps 756 mmHg 81%
21:00 -3°C° 0 mm 4 mps 757 mmHg 82%
22:00 -3°C° 0 mm 4 mps 757 mmHg 83%
23:00 -3°C° 0 mm 4 mps 758 mmHg 84%

27 October, Tuesday

Time Temperature Precipitation Wind Pressure Humidity
00:00 -3°C° 0 mm 4 mps 758 mmHg 85%
01:00 -4°C° 0 mm 3 mps 758 mmHg 86%
02:00 -4°C° 0 mm 3 mps 759 mmHg 86%
03:00 -4°C° 0 mm 3 mps 759 mmHg 87%
04:00 -4°C° 0 mm 3 mps 759 mmHg 88%
05:00 -3°C° 0 mm 2 mps 760 mmHg 88%
06:00 -3°C° 0 mm 2 mps 760 mmHg 89%
07:00 -3°C° 0 mm 2 mps 761 mmHg 84%
08:00 -2°C° 0 mm 2 mps 761 mmHg 80%
09:00 -1°C° 0 mm 2 mps 761 mmHg 76%
10:00 +1°C° 0 mm 2 mps 761 mmHg 69%
11:00 +2°C° 0 mm 2 mps 761 mmHg 63%
12:00 +3°C° 0 mm 2 mps 762 mmHg 57%
13:00 +3°C° 0 mm 2 mps 762 mmHg 59%
14:00 +3°C° 0 mm 2 mps 762 mmHg 61%
15:00 +3°C° 0 mm 2 mps 762 mmHg 62%
16:00 +2°C° 0 mm 2 mps 762 mmHg 65%
17:00 +1°C° 0 mm 2 mps 762 mmHg 69%
18:00 +1°C° 0 mm 1 mps 762 mmHg 72%
19:00 +1°C° 0 mm 1 mps 762 mmHg 73%
20:00 -1°C° 0 mm 2 mps 762 mmHg 74%
21:00 -1°C° 0 mm 2 mps 762 mmHg 75%
22:00 -1°C° 0 mm 2 mps 761 mmHg 75%
23:00 -1°C° 0 mm 2 mps 761 mmHg 75%
Show more